Location: Newark
(13.8625°N, 100.5144°E)
Time: 01:36:57
(UTC+00:00)

Hubble Space Telescope - Pass Details

Date: 12 May 2021
Orbit: 535 x 539 km, 28.5° (Epoch: 24 June)

Event Time Altitude Azimuth Distance (km) Brightness Sun altitude
Exits shadow 22:21:58 - 214° (SW) 2,211 3.4 -7.6°
Reaches altitude 10° 22:23:16 10° 206° (SSW) 1,771 3.0 -7.4°
Maximum altitude 22:26:39 25° 150° (SSE) 1,099 2.5 -6.6°
Drops below altitude 10° 22:30:03 10° 94° (E) 1,771 4.7 -5.8°
Sets 22:32:35 0° 80° (E) 2,661 6.5 -5.2°
